[[{"header":{"parameterUnit":"m.s-1","parameterCategory":1,"la1":30.2991,"la2":30.254,"lo1":-89.0895,"lo2":-89.0444,"dy":0.0017,"dx":0.0017,"nx":28,"ny":28,"refTime":"2025-09-05T03:00:00:Z","depth":0,"parameterNumber":2,"parameterNumberName":"U-component_of_WINDS"},"data":[0,0,0,0,0,0,0,0,0,0,0,0,0,0,0,0,0,0,0,0,0,0,0,0,0,0,0,0,0,0,0,0,0,0,0,0,0,0,0,0,0,0,0,0,0,0,0,0,0,0,0,0,0,0,0,0,0,0,1.5577,1.5578,0,1.5688,1.5689,1.569,1.5726,1.5725,1.5725,1.5724,1.5836,1.584,1.5843,0,0,0,0,0,0,0,0,0,0,0,0,0,1.5393,1.5396,1.5577,1.5578,1.5579,1.5687,1.5689,1.569,1.5726,1.5725,1.5724,1.5724,1.5835,1.5839,1.5843,0,0,0,0,0,0,0,0,0,0,0,0,0,1.5485,1.5397,1.5576,1.561,1.5614,1.5687,1.5689,1.5691,1.5726,1.5725,1.5724,1.5724,1.5834,1.5839,1.5844,1.5891,0,0,1.586,1.5862,0,0,0,0,0,0,0,0,1.548,1.5492,1.5604,1.5608,1.5613,1.5692,1.5665,1.5758,1.5726,1.5683,1.5724,1.5723,1.5789,1.5798,1.582,1.5896,1.5901,1.586,1.5863,1.5866,1.5867,0,0,0,0,0,0,0,1.5473,1.5487,1.5621,1.5605,1.5611,1.5619,1.5631,1.5683,1.5739,1.5687,1.569,1.5703,1.5791,1.5815,1.5823,1.5903,1.586,1.5865,1.5868,1.587,1.6022,1.6022,0,0,0,0,0,0,1.5462,1.5482,1.5617,1.5624,1.5543,1.5623,1.5636,1.5667,1.5738,1.5749,1.5703,1.5704,1.5806,1.5817,1.5827,1.5886,1.5866,1.587,1.5873,1.6021,1.6022,1.6023,0,0,0,0,0,0,1.5458,1.5473,1.5613,1.5554,1.5572,1.5627,1.5661,1.567,1.5694,1.5751,1.5761,1.5717,1.5806,1.582,1.5875,1.589,1.5873,1.5877,1.602,1.6021,1.6022,1.6004,0,0,0,0,0,0,1.5452,1.5472,1.5491,1.5554,1.5575,1.5659,1.5662,1.5673,1.5703,1.5705,1.5767,1.5776,1.5807,1.5867,1.588,1.5897,1.5882,1.6018,1.602,1.6022,1.6004,1.6005,1.6006,0,0,0,0,0,1.5445,1.5481,1.5492,1.5508,1.56,1.566,1.5672,1.5707,1.5704,1.5723,1.5759,1.5774,1.5886,1.5872,1.5887,1.5906,1.6018,1.602,1.6022,1.6003,1.6005,1.6006,0,0,0,0,0,0,1.5418,1.549,1.5502,1.556,1.5603,1.5666,1.5691,1.5707,1.5752,1.5752,1.5793,1.5806,1.5858,1.5888,1.587,1.5955,1.5953,1.5958,1.5933,1.5935,1.5936,1.5928,1.5886,0,0,0,0,0,1.5419,1.5462,1.5522,1.5567,1.5588,1.5636,1.5663,1.5686,1.5733,1.5751,1.5792,1.5836,1.5881,1.591,1.5955,1.6008,1.6022,1.6029,1.603,1.603,1.6034,1.6063,1.6067,1.603,1.603,1.603,0,0,1.5421,1.5466,1.549,1.5563,1.5599,1.5642,1.5651,1.5696,1.5728,1.5758,1.5812,1.5843,1.5895,1.5949,1.5975,1.5975,1.6047,1.6033,1.6033,1.6037,1.6066,1.6069,1.6072,1.6031,1.6031,1.6031,0,0,1.5446,1.5485,1.5526,1.5562,1.5617,1.5648,1.5658,1.5718,1.5739,1.5794,1.5817,1.5855,1.5933,1.5968,1.5997,1.6034,1.6049,1.6047,1.6053,1.6081,1.6084,1.6086,1.6099,1.6103,1.6051,1.6051,1.6051,0,1.5441,1.5507,1.5544,1.5588,1.5619,1.5648,1.5689,1.5722,1.5789,1.5809,1.5809,1.5906,1.5943,1.6005,1.6014,1.6036,1.6048,1.604,1.608,1.6083,1.6087,1.6099,1.6103,1.605,1.605,1.6051,1.6051,0,1.5498,1.5543,1.557,1.5633,1.5667,1.5709,1.5752,1.5781,1.5801,1.5832,1.5887,1.5932,1.5986,1.6003,1.6023,1.6067,1.6066,1.6072,1.6071,1.6089,1.6101,1.6106,1.6049,1.605,1.605,1.605,0,0,1.5509,1.5592,1.5601,1.563,1.5693,1.5728,1.5771,1.5824,1.5848,1.5893,1.5929,1.5993,1.5999,1.6031,1.6055,1.608,1.6105,1.6084,1.6086,1.6085,1.6156,1.615,1.6155,1.6116,1.6117,1.6118,1.6151,0,1.5542,1.562,1.5654,1.5717,1.5758,1.5786,1.5823,1.5865,1.5895,1.5934,1.5966,1.6011,1.6016,1.6036,1.6061,1.6097,1.612,1.6095,1.6149,1.615,1.6134,1.6161,1.6156,1.6185,1.6156,1.6157,1.6158,0,1.559,1.5635,1.5701,1.5758,1.5777,1.581,1.586,1.5897,1.5945,1.5965,1.6,1.6023,1.6068,1.6064,1.6126,1.6108,1.6132,1.6153,1.6155,1.616,1.6155,1.6167,1.6196,1.62,1.6166,1.6165,1.6165,0,1.559,1.5667,1.5717,1.5741,1.5808,1.583,1.5859,1.5906,1.5935,1.5979,1.5999,1.6047,1.6074,1.611,1.6145,1.6139,1.6204,1.6203,1.622,1.6219,1.6232,1.6231,1.6264,1.6249,1.6249,1.6249,1.6249,0,1.5622,1.5661,1.5717,1.5748,1.5792,1.5831,1.5873,1.5904,1.5946,1.5982,1.6009,1.6042,1.6087,1.6125,1.6153,1.6199,1.6211,1.6228,1.6235,1.6225,1.6223,1.6241,1.6239,1.625,1.625,1.625,1.6249,0,1.5629,1.5669,1.5724,1.5783,1.5799,1.5829,1.5879,1.5909,1.594,1.5986,1.5998,1.6046,1.6093,1.6132,1.6193,1.6212,1.626,1.6268,1.6244,1.6247,1.6262,1.626,1.6308,1.6316,1.6296,1.6296,1.6296,0,1.5647,1.5678,1.574,1.5766,1.5795,1.5837,1.5867,1.5906,1.5935,1.5991,1.6014,1.6063,1.6104,1.6177,1.6217,1.6264,1.6273,1.6287,1.628,1.6269,1.6272,1.627,1.6272,1.6287,1.6287,1.6287,1.6287,0,1.5673,1.5691,1.5733,1.5782,1.5817,1.5857,1.5898,1.5918,1.5964,1.5996,1.6044,1.6076,1.6138,1.6186,1.6237,1.6266,1.6284,1.6289,1.6295,1.6285,1.627,1.6277,1.6244,1.6287,1.6287,1.6287,1.6287,1.6287,1.5686,1.5714,1.5762,1.5808,1.5842,1.588,1.5911,1.5945,1.5986,1.604,1.606,1.6109,1.6155,1.6225,1.6255,1.6293,1.6295,1.6305,1.6307,1.6308,1.6307,1.6264,1.6303,1.6303,1.6303,1.6303,1.6303,0,1.5712,1.5744,1.5786,1.5843,1.5878,1.5892,1.5938,1.5967,1.601,1.6051,1.6091,1.6146,1.6192,1.6235,1.6283,1.6306,1.6315,1.6317,1.6315,1.6321,1.6302,1.6292,1.6308,1.6308,1.6308,1.6308,1.6308,1.6308,1.573,1.5779,1.5802,1.5867,1.5899,1.5947,1.5972,1.6006,1.604,1.6099,1.6138,1.6166,1.6208,1.6259,1.6302,1.6314,1.633,1.6329,1.6343,1.6324,1.6323,1.6322,1.6312,1.6332,1.6333,1.6358,1.6359,1.6359]},{"header":{"parameterUnit":"m.s-1","parameterCategory":1,"la1":30.2991,"la2":30.254,"lo1":-89.0895,"lo2":-89.0444,"dy":0.0017,"dx":0.0017,"nx":28,"ny":28,"refTime":"2025-09-05T03:00:00:Z","depth":0,"parameterNumber":3,"parameterNumberName":"V-component_of_WINDS"},"data":[0,0,0,0,0,0,0,0,0,0,0,0,0,0,0,0,0,0,0,0,0,0,0,0,0,0,0,0,0,0,0,0,0,0,0,0,0,0,0,0,0,0,0,0,0,0,0,0,0,0,0,0,0,0,0,0,0,0,2.3112,2.3111,0,2.3034,2.3033,2.3032,2.2958,2.2958,2.2957,2.2956,2.2872,2.287,2.2869,0,0,0,0,0,0,0,0,0,0,0,0,0,2.3194,2.3193,2.3112,2.3111,2.311,2.3034,2.3033,2.3032,2.2959,2.2958,2.2956,2.2955,2.2872,2.2871,2.2869,0,0,0,0,0,0,0,0,0,0,0,0,0,2.3142,2.3193,2.3113,2.3065,2.306,2.3034,2.3033,2.3032,2.2959,2.2958,2.2956,2.2955,2.2873,2.2871,2.2869,2.2883,0,0,2.2862,2.2861,0,0,0,0,0,0,0,0,2.3145,2.3139,2.3073,2.3068,2.3062,2.3005,2.3031,2.2982,2.2959,2.2997,2.2956,2.2954,2.2917,2.2911,2.2899,2.2879,2.2875,2.2862,2.2861,2.286,2.2859,0,0,0,0,0,0,0,2.3149,2.3142,2.3081,2.3072,2.3065,2.3046,2.3037,2.3021,2.2965,2.2994,2.2988,2.298,2.2914,2.2901,2.2897,2.2874,2.2862,2.286,2.2859,2.2858,2.286,2.2861,0,0,0,0,0,0,2.316,2.3145,2.3084,2.3079,2.3101,2.3046,2.3035,2.3024,2.2965,2.2955,2.2981,2.2977,2.2906,2.2899,2.2893,2.2905,2.286,2.2858,2.2857,2.2858,2.286,2.2861,0,0,0,0,0,0,2.3162,2.3155,2.3087,2.311,2.31,2.3046,2.3034,2.3024,2.3011,2.2956,2.2945,2.2979,2.2904,2.2896,2.2886,2.2901,2.2857,2.2855,2.2857,2.2859,2.2861,2.2929,0,0,0,0,0,0,2.3165,2.3156,2.3162,2.3111,2.3099,2.3082,2.3035,2.3023,2.3008,2.3002,2.2951,2.2942,2.2903,2.289,2.2884,2.2897,2.2853,2.2855,2.2858,2.286,2.2925,2.2933,2.294,0,0,0,0,0,2.3168,2.3184,2.3163,2.3156,2.3106,2.3083,2.3076,2.3032,2.301,2.3015,2.2979,2.2943,2.2901,2.2889,2.2882,2.2895,2.2854,2.2857,2.286,2.2922,2.2932,2.294,0,0,0,0,0,0,2.3238,2.3177,2.3153,2.3153,2.3124,2.3071,2.3076,2.3044,2.302,2.3015,2.296,2.2949,2.2944,2.2919,2.2907,2.2905,2.2872,2.2874,2.2922,2.2931,2.2938,2.2944,2.2852,0,0,0,0,0,2.3254,2.3242,2.3188,2.3194,2.3181,2.3131,2.312,2.3088,2.3055,2.3042,2.3006,2.2974,2.2953,2.2941,2.2919,2.2922,2.2908,2.2927,2.2934,2.2941,2.2942,2.294,2.2948,2.2871,2.2871,2.2871,0,0,2.3285,2.3251,2.3246,2.3207,2.3181,2.3168,2.3121,2.311,2.31,2.304,2.3028,2.3,2.2961,2.2957,2.2954,2.2936,2.2961,2.2944,2.295,2.2948,2.2944,2.2951,2.2958,2.2873,2.2873,2.2872,0,0,2.3337,2.331,2.3311,2.3286,2.3247,2.3214,2.3214,2.3166,2.3145,2.3133,2.3087,2.3073,2.3039,2.3013,2.2995,2.3035,2.3001,2.303,2.3068,2.3066,2.3072,2.3078,2.3091,2.3096,2.3032,2.3032,2.3032,0,2.3381,2.3361,2.3315,2.3307,2.329,2.3237,2.3237,2.3214,2.317,2.3159,2.314,2.3095,2.3065,2.3053,2.3063,2.3051,2.3048,2.3035,2.3076,2.308,2.3084,2.3096,2.3101,2.3036,2.3035,2.3035,2.3035,0,2.3417,2.3404,2.3409,2.3369,2.3353,2.3349,2.33,2.329,2.3259,2.3228,2.3214,2.3177,2.3145,2.314,2.311,2.3124,2.3114,2.3086,2.3052,2.3096,2.3106,2.311,2.3041,2.304,2.3038,2.3038,0,0,2.3509,2.3444,2.3446,2.3427,2.338,2.3368,2.3361,2.3331,2.3322,2.3293,2.3284,2.3257,2.323,2.321,2.3176,2.3176,2.3208,2.3147,2.3145,2.3159,2.3219,2.324,2.3246,2.3186,2.3186,2.3187,2.3222,0,2.3552,2.3537,2.3495,2.3492,2.3479,2.3428,2.3421,2.339,2.3361,2.3343,2.3309,2.329,2.3258,2.3245,2.3242,2.3205,2.322,2.3202,2.3175,2.3175,2.3186,2.3251,2.3273,2.3308,2.3226,2.3226,2.3227,0,2.36,2.3575,2.3571,2.3524,2.3517,2.3512,2.348,2.3466,2.3429,2.3407,2.3385,2.3348,2.3335,2.3304,2.3285,2.3275,2.3261,2.3241,2.3241,2.3236,2.3203,2.3247,2.3318,2.3323,2.3233,2.3232,2.3232,0,2.3666,2.3632,2.3625,2.361,2.3555,2.3552,2.3529,2.3491,2.3476,2.3448,2.3437,2.3409,2.3392,2.337,2.3325,2.3307,2.3311,2.3277,2.329,2.3292,2.3293,2.3293,2.3362,2.3286,2.3286,2.3286,2.3286,0,2.3717,2.3717,2.3654,2.3649,2.3646,2.3598,2.3596,2.3567,2.3534,2.3522,2.3476,2.3465,2.3408,2.339,2.3354,2.3343,2.3336,2.3317,2.3307,2.332,2.3323,2.331,2.3306,2.3287,2.3287,2.3287,2.3287,0,2.3791,2.3749,2.3738,2.3687,2.3674,2.3674,2.3629,2.3622,2.359,2.3575,2.3568,2.3516,2.3493,2.3446,2.3409,2.3386,2.3382,2.3366,2.3394,2.3388,2.3404,2.3403,2.3466,2.3471,2.3394,2.3395,2.3396,0,2.3826,2.3824,2.3773,2.3763,2.3741,2.3725,2.3709,2.366,2.3645,2.3604,2.3601,2.3574,2.355,2.3514,2.3472,2.3443,2.3425,2.3449,2.3421,2.3433,2.3424,2.3424,2.3423,2.3456,2.3457,2.3458,2.3458,0,2.3892,2.3871,2.3851,2.3823,2.3806,2.3782,2.3755,2.3748,2.3693,2.3678,2.3654,2.3635,2.3598,2.3571,2.3536,2.351,2.3474,2.3468,2.3469,2.3482,2.3498,2.3489,2.3411,2.3467,2.3466,2.3465,2.3465,2.3464,2.3946,2.3942,2.3905,2.3884,2.3859,2.3834,2.3825,2.3791,2.3771,2.3738,2.371,2.3688,2.365,2.3599,2.3575,2.3556,2.3539,2.3542,2.3542,2.3543,2.3548,2.3503,2.355,2.3549,2.3549,2.3549,2.3548,0,2.4008,2.3983,2.3964,2.3927,2.391,2.388,2.3848,2.3835,2.3817,2.3786,2.3763,2.3734,2.3708,2.3664,2.3633,2.3626,2.3609,2.362,2.3619,2.3613,2.3565,2.3567,2.3634,2.3634,2.3634,2.3634,2.3634,2.3634,2.4039,2.403,2.4005,2.3982,2.3955,2.3934,2.3919,2.3895,2.387,2.3841,2.3819,2.3791,2.3753,2.372,2.3693,2.3681,2.3671,2.3687,2.3669,2.3625,2.3617,2.3609,2.361,2.3685,2.3685,2.3718,2.3718,2.3718]}]]